 day,  time,  air_temp(C),  RH(%),  ground_temp10cm(C),  ground_temp20cm(C),  ground_temp40cm(C),  precipitation(mm/h),  Solar_Radiation(MJ/m2h),  lack, 
 02/05/01, 01:00,   9.6,  99,   9.8,  10.0,   9.3,   3.0,  0.00, 
 02/05/01, 02:00,   9.6,  99,   9.8,  10.0,   9.3,   2.0,  0.00, 
 02/05/01, 03:00,   9.7,  99,   9.8,   9.9,   9.4,   1.0,  0.00, 
 02/05/01, 04:00,   9.7,  99,   9.8,   9.9,   9.4,   1.0,  0.00, 
 02/05/01, 05:00,   9.8,  99,   9.8,   9.9,   9.3,   1.5,  0.00, 
 02/05/01, 06:00,  10.0,  99,   9.7,   9.9,   9.3,   1.0,  0.00, 
 02/05/01, 07:00,  10.3,  99,   9.7,   9.9,   9.5,   0.0,  0.09, 
 02/05/01, 08:00,  10.7,  99,   9.8,   9.9,   9.5,   0.5,  0.53, 
 02/05/01, 09:00,  10.9,  99,  10.0,   9.8,   9.4,   0.0,  0.26, 
 02/05/01, 10:00,  10.0,  99,  10.1,   9.8,   9.4,   0.0,  0.16, 
 02/05/01, 11:00,  12.1,  99,  10.3,   9.9,   9.5,   0.5,  1.52, 
 02/05/01, 12:00,  11.3,  99,  10.7,   9.9,   9.5,   0.0,  1.09, 
 02/05/01, 13:00,  11.7,  99,  11.1,   9.9,   9.5,   0.0,  1.37, 
 02/05/01, 14:00,  12.5,  99,  11.5,  10.0,   9.5,   0.0,  0.93, 
 02/05/01, 15:00,  13.4,  98,  11.8,  10.1,   9.3,   0.5,  0.76, 
 02/05/01, 16:00,  13.8,  95,  12.0,  10.2,   9.4,   0.0,  1.00, 
 02/05/01, 17:00,  12.9,  89,  12.2,  10.3,   9.4,   0.0,  0.90, 
 02/05/01, 18:00,  11.3,  98,  12.3,  10.4,   9.4,   0.0,  0.43, 
 02/05/01, 19:00,   9.3,  99,  12.2,  10.4,   9.4,   0.0,  0.05, 
 02/05/01, 20:00,   9.0,  99,  11.9,  10.5,   9.5,   0.0,  0.00, 
 02/05/01, 21:00,   8.4,  99,  11.7,  10.6,   9.5,   0.0,  0.00, 
 02/05/01, 22:00,   8.5,  99,  11.5,  10.7,   9.5,   0.0,  0.00, 
 02/05/01, 23:00,   7.4,  99,  11.3,  10.6,   9.5,   0.0,  0.00, 
 02/05/02, 00:00,   7.3,  99,  11.1,  10.6,   9.4,   0.0,  0.00, 
 02/05/02, 01:00,   8.1,  99,  10.8,  10.7,   9.5,   0.0,  0.00, 
 02/05/02, 02:00,   8.0,  99,  10.6,  10.5,   9.4,   0.0,  0.00, 
 02/05/02, 03:00,   7.2,  97,  10.3,  10.5,   9.4,   0.0,  0.00, 
 02/05/02, 04:00,   8.4,  99,  10.1,  10.4,   9.6,   0.0,  0.00, 
 02/05/02, 05:00,   7.9,  99,   9.8,  10.4,   9.6,   0.0,  0.00, 
 02/05/02, 06:00,   8.9,  99,   9.7,  10.4,   9.6,   0.0,  0.15, 
 02/05/02, 07:00,  11.4,  99,   9.6,  10.3,   9.5,   0.0,  0.80, 
 02/05/02, 08:00,  12.7,  87,   9.8,  10.2,   9.6,   0.0,  1.39, 
 02/05/02, 09:00,  15.2,  79,  10.4,  10.2,   9.6,   0.0,  2.05, 
 02/05/02, 10:00,  15.0,  77,  11.1,  10.1,   9.6,   0.0,  2.43, 
 02/05/02, 11:00,  15.5,  73,  11.9,  10.2,   9.6,   0.0,  2.27, 
 02/05/02, 12:00,  17.8,  65,  12.7,  10.3,   9.6,   0.0,  2.66, 
 02/05/02, 13:00,  20.4,  58,  13.6,  10.4,   9.6,   0.0,  3.22, 
 02/05/02, 14:00,  20.9,  60,  14.1,  10.6,   9.6,   0.0,  3.40, 
 02/05/02, 15:00,  20.0,  62,  14.4,  10.8,   9.6,   0.0,  2.35, 
 02/05/02, 16:00,  18.8,  66,  14.7,  11.0,   9.6,   0.0,  2.26, 
 02/05/02, 17:00,  15.0,  82,  15.0,  11.2,   9.6,   0.0,  0.88, 
 02/05/02, 18:00,  12.5,  94,  15.1,  11.4,   9.6,   0.0,  0.23, 
 02/05/02, 19:00,  11.4,  99,  14.8,  11.6,   9.6,   0.0,  0.00, 
 02/05/02, 20:00,  10.8,  99,  14.5,  11.8,   9.7,   0.0,  0.00, 
 02/05/02, 21:00,  10.5,  99,  14.2,  11.9,   9.7,   0.0,  0.00, 
 02/05/02, 22:00,  10.2,  99,  13.9,  11.9,   9.7,   0.0,  0.00, 
 02/05/02, 23:00,   9.7,  99,  13.6,  12.0,   9.7,   0.0,  0.00, 
 02/05/03, 00:00,   9.1,  99,  13.4,  12.0,   9.8,   0.0,  0.00, 
 02/05/03, 01:00,   8.9,  99,  13.2,  12.0,   9.8,   0.0,  0.00, 
 02/05/03, 02:00,   8.5,  99,  12.8,  12.0,   9.8,   0.0,  0.00, 
 02/05/03, 03:00,   8.9,  99,  12.6,  11.9,   9.9,   0.0,  0.00, 
 02/05/03, 04:00,   8.4,  99,  12.4,  11.9,   9.9,   0.0,  0.00, 
 02/05/03, 05:00,   8.2,  99,  12.2,  11.9,   9.9,   0.0,  0.00, 
 02/05/03, 06:00,   7.8,  99,  12.0,  11.7,   9.9,   0.0,  0.09, 
 02/05/03, 07:00,   8.1,  99,  11.9,  11.8,  10.0,   0.0,  0.29, 
 02/05/03, 08:00,   9.0,  99,  11.8,  11.7,  10.0,   0.0,  0.64, 
 02/05/03, 09:00,  10.0,  99,  11.9,  11.6,  10.0,   0.0,  1.01, 
 02/05/03, 10:00,  12.9,  90,  12.2,  11.6,  10.0,   0.0,  2.96, 
 02/05/03, 11:00,  15.4,  75,  13.1,  11.6,  10.1,   0.0,  3.13, 
 02/05/03, 12:00,  16.3,  62,  14.1,  11.6,  10.1,   0.0,  3.03, 
 02/05/03, 13:00,  19.6,  45,  15.0,  11.7,  10.1,   0.0,  3.37, 
 02/05/03, 14:00,  19.2,  52,  15.2,  11.8,  10.1,   0.0,  2.80, 
 02/05/03, 15:00,  17.4,  53,  15.3,  12.0,  10.1,   0.0,  1.68, 
 02/05/03, 16:00,  17.5,  56,  15.2,  12.2,  10.1,   0.0,  1.93, 
 02/05/03, 17:00,  14.4,  67,  15.4,  12.3,  10.2,   0.0,  1.13, 
 02/05/03, 18:00,  12.3,  77,  15.3,  12.5,  10.2,   0.0,  0.42, 
 02/05/03, 19:00,  10.6,  88,  15.1,  12.5,  10.2,   0.0,  0.04, 
 02/05/03, 20:00,   9.7,  93,  14.7,  12.7,  10.2,   0.0,  0.00, 
 02/05/03, 21:00,   9.2,  94,  14.3,  12.6,  10.2,   0.0,  0.00, 
 02/05/03, 22:00,   8.8,  95,  13.8,  12.6,  10.3,   0.0,  0.00, 
 02/05/03, 23:00,   9.0,  95,  13.6,  12.6,  10.3,   0.0,  0.00, 
 02/05/04, 00:00,   9.9,  71,  13.3,  12.6,  10.3,   0.0,  0.00, 
 02/05/04, 01:00,  10.1,  77,  13.0,  12.5,  10.4,   0.0,  0.00, 
 02/05/04, 02:00,  10.0,  91,  12.7,  12.5,  10.4,   0.0,  0.00, 
 02/05/04, 03:00,  10.3,  92,  12.5,  12.5,  10.4,   0.0,  0.00, 
 02/05/04, 04:00,   9.0,  99,  12.4,  12.4,  10.4,   0.0,  0.00, 
 02/05/04, 05:00,   8.4,  99,  12.2,  12.3,  10.5,   0.5,  0.00, 
 02/05/04, 06:00,   9.4,  99,  12.1,  12.2,  10.5,   0.0,  0.01, 
 02/05/04, 07:00,   9.8,  99,  12.0,  12.1,  10.5,   1.0,  0.14, 
 02/05/04, 08:00,  10.0,  99,  11.9,  12.0,  10.5,   0.0,  0.19, 
 02/05/04, 09:00,  10.4,  99,  11.9,  12.0,  10.6,   0.0,  0.23, 
 02/05/04, 10:00,  11.5,  99,  11.9,  12.0,  10.6,   0.0,  0.51, 
 02/05/04, 11:00,  11.6,  99,  12.1,  11.9,  10.6,   0.0,  0.47, 
 02/05/04, 12:00,  11.4,  99,  12.2,  11.9,  10.6,   0.5,  0.30, 
 02/05/04, 13:00,  11.4,  99,  12.2,  11.9,  10.6,   1.5,  0.33, 
 02/05/04, 14:00,  11.2,  99,  12.3,  11.7,  10.5,   1.0,  0.18, 
 02/05/04, 15:00,  11.1,  99,  12.3,  11.7,  10.5,   1.5,  0.12, 
 02/05/04, 16:00,  11.2,  99,  12.2,  11.8,  10.6,   1.5,  0.07, 
 02/05/04, 17:00,  11.2,  99,  12.2,  11.7,  10.5,   1.0,  0.00, 
 02/05/04, 18:00,  11.4,  99,  12.1,  11.8,  10.6,   3.5,  0.00, 
 02/05/04, 19:00,  11.4,  99,  12.0,  11.8,  10.6,   4.0,  0.00, 
 02/05/04, 20:00,  11.4,  99,  12.0,  11.8,  10.7,   0.5,  0.00, 
 02/05/04, 21:00,  11.7,  99,  11.9,  11.8,  10.7,   0.0,  0.00, 
 02/05/04, 22:00,  11.6,  99,  11.9,  11.8,  10.7,   0.0,  0.00, 
 02/05/04, 23:00,  11.7,  99,  11.8,  11.7,  10.7,   0.0,  0.00, 
 02/05/05, 00:00,  11.8,  99,  11.8,  11.7,  10.7,   0.5,  0.00, 
 02/05/05, 01:00,  11.8,  99,  11.8,  11.7,  10.7,   0.0,  0.00, 
 02/05/05, 02:00,  11.9,  99,  11.8,  11.7,  10.7,   0.5,  0.00, 
 02/05/05, 03:00,  11.9,  99,  11.8,  11.7,  10.7,   0.0,  0.00, 
 02/05/05, 04:00,  11.8,  99,  11.7,  11.6,  10.6,   0.0,  0.00, 
 02/05/05, 05:00,  11.7,  99,  11.7,  11.6,  10.7,   0.0,  0.00, 
 02/05/05, 06:00,  11.9,  99,  11.7,  11.6,  10.7,   0.0,  0.01, 
 02/05/05, 07:00,  12.0,  99,  11.7,  11.6,  10.7,   0.0,  0.15, 
 02/05/05, 08:00,  11.8,  99,  11.8,  11.5,  10.6,   0.0,  0.52, 
 02/05/05, 09:00,  11.4,  99,  12.0,  11.6,  10.7,   0.5,  0.82, 
 02/05/05, 10:00,  14.9,  76,  12.2,  11.6,  10.7,   0.0,  3.03, 
 02/05/05, 11:00,  15.8,  73,  13.2,  11.6,  10.7,   0.0,  2.29, 
 02/05/05, 12:00,  16.7,  52,  14.0,  11.6,  10.7,   0.0,  3.14, 
 02/05/05, 13:00,  17.6,  43,  14.9,  11.7,  10.7,   0.0,  3.34, 
 02/05/05, 14:00,  17.2,  47,  15.2,  11.9,  10.7,   0.0,  2.82, 
 02/05/05, 15:00,  15.3,  46,  15.2,  12.1,  10.7,   0.0,  1.98, 
 02/05/05, 16:00,  14.7,  41,  15.2,  12.3,  10.7,   0.0,  1.42, 
 02/05/05, 17:00,  13.6,  40,  15.0,  12.4,  10.7,   0.0,  0.68, 
 02/05/05, 18:00,  12.3,  49,  14.8,  12.6,  10.7,   0.0,  0.26, 
 02/05/05, 19:00,   9.0,  89,  14.4,  12.5,  10.7,   0.0,  0.01, 
 02/05/05, 20:00,   8.0,  99,  13.9,  12.6,  10.8,   0.0,  0.00, 
 02/05/05, 21:00,   7.4,  99,  13.6,  12.6,  10.8,   0.5,  0.00, 
 02/05/05, 22:00,   6.9,  99,  13.3,  12.6,  10.8,   0.0,  0.00, 
 02/05/05, 23:00,   6.2,  99,  12.9,  12.6,  10.8,   0.0,  0.00, 
 02/05/06, 00:00,   5.2,  99,  12.6,  12.5,  10.8,   0.0,  0.00, 
 02/05/06, 01:00,   5.1,  99,  12.3,  12.4,  10.9,   0.0,  0.00, 
 02/05/06, 02:00,   4.8,  99,  12.0,  12.5,  10.9,   0.0,  0.00, 
 02/05/06, 03:00,   3.2,  91,  11.7,  12.3,  10.9,   0.0,  0.00, 
 02/05/06, 04:00,   9.8,  19,  11.4,  12.2,  10.9,   0.0,  0.00, 
 02/05/06, 05:00,   2.5,  88,  11.1,  12.1,  10.9,   0.0,  0.00, 
 02/05/06, 06:00,   3.1,  87,  10.8,  11.9,  10.8,   0.0,  0.15, 
 02/05/06, 07:00,   3.2,  89,  10.5,  11.9,  11.0,   0.0,  0.95, 
 02/05/06, 08:00,   5.4,  80,  10.6,  11.7,  11.0,   0.0,  1.75, 
 02/05/06, 09:00,   9.6,  65,  11.0,  11.6,  11.0,   0.0,  2.46, 
 02/05/06, 10:00,  13.6,  54,  11.6,  11.6,  11.0,   0.0,  3.02, 
 02/05/06, 11:00,  14.5,  58,  12.5,  11.5,  11.0,   0.0,  3.35, 
 02/05/06, 12:00,  14.9,  58,  13.7,  11.6,  11.0,   0.0,  3.52, 
 02/05/06, 13:00,  16.4,  65,  14.8,  11.7,  11.0,   0.0,  3.15, 
 02/05/06, 14:00,  17.4,  57,  15.0,  11.8,  11.0,   0.0,  2.23, 
 02/05/06, 15:00,  18.2,  51,  15.1,  12.0,  10.9,   0.0,  2.75, 
 02/05/06, 16:00,  17.5,  51,  15.1,  12.2,  10.9,   0.0,  2.15, 
 02/05/06, 17:00,  13.8,  60,  15.3,  12.4,  10.9,   0.0,  0.80, 
 02/05/06, 18:00,  12.0,  64,  15.2,  12.5,  10.9,   0.0,  0.23, 
 02/05/06, 19:00,  10.8,  72,  14.8,  12.6,  10.9,   0.0,  0.03, 
 02/05/06, 20:00,   9.7,  78,  14.5,  12.8,  10.9,   0.0,  0.00, 
 02/05/06, 21:00,   9.1,  86,  14.0,  12.7,  10.9,   0.0,  0.00, 
 02/05/06, 22:00,   9.1,  83,  13.6,  12.7,  11.0,   0.0,  0.00, 
 02/05/06, 23:00,   8.8,  92,  13.4,  12.7,  11.0,   0.0,  0.00, 
 02/05/07, 00:00,   8.5,  96,  13.0,  12.7,  11.0,   0.0,  0.00, 
 02/05/07, 01:00,   8.3,  99,  12.8,  12.6,  11.0,   0.0,  0.00, 
 02/05/07, 02:00,   8.3,  99,  12.6,  12.6,  11.0,   0.0,  0.00, 
 02/05/07, 03:00,   8.1,  99,  12.4,  12.5,  11.1,   0.0,  0.00, 
 02/05/07, 04:00,   7.9,  99,  12.3,  12.5,  11.1,   0.0,  0.00, 
 02/05/07, 05:00,   7.8,  99,  12.1,  12.4,  11.1,   0.0,  0.00, 
 02/05/07, 06:00,   8.2,  99,  12.0,  12.4,  11.1,   0.0,  0.03, 
 02/05/07, 07:00,   8.1,  99,  11.9,  12.2,  11.1,   0.0,  0.11, 
 02/05/07, 08:00,   9.0,  97,  11.8,  12.1,  11.1,   0.0,  0.19, 
 02/05/07, 09:00,   9.1,  99,  11.7,  12.1,  11.1,   0.0,  0.37, 
 02/05/07, 10:00,  10.2,  99,  11.8,  12.0,  11.1,   0.5,  0.54, 
 02/05/07, 11:00,   9.9,  99,  11.9,  12.0,  11.1,   0.0,  0.47, 
 02/05/07, 12:00,   9.8,  99,  12.0,  12.0,  11.1,   0.0,  0.25, 
 02/05/07, 13:00,  10.4,  99,  12.0,  12.0,  11.1,   0.0,  0.30, 
 02/05/07, 14:00,  10.2,  99,  12.0,  12.0,  11.1,   1.0,  0.35, 
 02/05/07, 15:00,  11.1,  99,  12.1,  11.9,  11.1,   1.0,  0.47, 
 02/05/07, 16:00,  10.7,  99,  12.2,  11.9,  11.1,   4.0,  0.10, 
 02/05/07, 17:00,  11.1,  99,  12.2,  11.9,  11.1,   3.0,  0.15, 
 02/05/07, 18:00,  11.4,  99,  12.1,  11.9,  11.1,   2.0,  0.07, 
 02/05/07, 19:00,  11.8,  99,  12.1,  12.0,  11.2,   1.5,  0.00, 
 02/05/07, 20:00,  11.7,  99,  12.1,  12.0,  11.2,   3.0,  0.00, 
 02/05/07, 21:00,  11.8,  99,  12.0,  12.0,  11.2,   3.0,  0.00, 
 02/05/07, 22:00,  11.9,  99,  12.0,  12.0,  11.2,   4.5,  0.00, 
 02/05/07, 23:00,  12.2,  99,  12.0,  11.9,  11.2,   1.0,  0.00, 
 02/05/08, 00:00,  12.2,  99,  11.9,  11.9,  11.2,   0.5,  0.00, 
 02/05/08, 01:00,  12.0,  99,  11.9,  11.9,  11.2,   0.5,  0.00, 
 02/05/08, 02:00,  11.5,  99,  11.9,  11.9,  11.2,   0.5,  0.00, 
 02/05/08, 03:00,  11.5,  99,  11.9,  11.9,  11.2,   0.5,  0.00, 
 02/05/08, 04:00,  11.1,  99,  11.8,  11.8,  11.2,   1.5,  0.00, 
 02/05/08, 05:00,  10.8,  99,  11.8,  11.8,  11.2,   0.5,  0.00, 
 02/05/08, 06:00,  11.4,  99,  11.7,  11.7,  11.2,   0.5,  0.02, 
 02/05/08, 07:00,  11.5,  99,  11.7,  11.8,  11.2,   0.5,  0.15, 
 02/05/08, 08:00,  12.6,  99,  11.7,  11.7,  11.2,   0.5,  0.53, 
 02/05/08, 09:00,  12.6,  99,  11.9,  11.8,  11.2,   0.0,  0.71, 
 02/05/08, 10:00,  13.5,  96,  12.2,  11.8,  11.2,   0.0,  0.73, 
 02/05/08, 11:00,  14.3,  97,  12.5,  11.7,  11.2,   0.0,  0.76, 
 02/05/08, 12:00,  13.7,  99,  12.7,  11.7,  11.2,   1.0,  0.84, 
 02/05/08, 13:00,  15.7,  99,  13.2,  11.8,  11.2,   0.0,  1.42, 
 02/05/08, 14:00,  18.3,  89,  13.6,  11.9,  11.2,   0.0,  1.75, 
 02/05/08, 15:00,  16.6,  90,  13.9,  12.0,  11.2,   0.0,  1.05, 
 02/05/08, 16:00,  15.9,  88,  14.3,  12.0,  11.2,   0.0,  0.92, 
 02/05/08, 17:00,  15.1,  94,  14.5,  12.2,  11.2,   0.0,  0.67, 
 02/05/08, 18:00,  14.2,  98,  14.5,  12.3,  11.2,   0.0,  0.19, 
 02/05/08, 19:00,  13.2,  99,  14.4,  12.4,  11.2,   0.0,  0.03, 
 02/05/08, 20:00,  12.5,  99,  14.4,  12.6,  11.2,   0.0,  0.00, 
 02/05/08, 21:00,  12.2,  99,  14.2,  12.5,  11.2,   0.0,  0.00, 
 02/05/08, 22:00,  11.6,  99,  14.0,  12.6,  11.2,   0.0,  0.00, 
 02/05/08, 23:00,  10.8,  99,  13.6,  12.6,  11.2,   0.0,  0.00, 
 02/05/09, 00:00,  10.4,  99,  13.5,  12.6,  11.2,   0.0,  0.00, 
 02/05/09, 01:00,   9.8,  99,  13.3,  12.6,  11.3,   0.0,  0.00, 
 02/05/09, 02:00,   9.5,  99,  13.2,  12.7,  11.3,   0.0,  0.00, 
 02/05/09, 03:00,   9.0,  99,  13.0,  12.6,  11.3,   0.0,  0.00, 
 02/05/09, 04:00,   8.7,  99,  12.7,  12.5,  11.3,   0.0,  0.00, 
 02/05/09, 05:00,   8.3,  99,  12.6,  12.5,  11.3,   0.0,  0.00, 
 02/05/09, 06:00,   8.3,  99,  12.4,  12.4,  11.3,   0.0,  0.08, 
 02/05/09, 07:00,   8.7,  99,  12.3,  12.5,  11.3,   0.5,  0.43, 
 02/05/09, 08:00,   9.6,  99,  12.4,  12.4,  11.4,   0.0,  0.90, 
 02/05/09, 09:00,  10.6,  99,  12.5,  12.3,  11.3,   0.0,  1.04, 
 02/05/09, 10:00,  11.8,  99,  13.0,  12.3,  11.4,   0.0,  2.22, 
 02/05/09, 11:00,  16.5,  83,  13.5,  12.3,  11.4,   0.0,  2.88, 
 02/05/09, 12:00,  16.2,  79,  14.5,  12.4,  11.4,   0.0,  2.93, 
 02/05/09, 13:00,  17.1,  76,  15.4,  12.4,  11.4,   0.0,  1.47, 
 02/05/09, 14:00,  17.4,  76,  15.7,  12.5,  11.4,   0.0,  1.37, 
 02/05/09, 15:00,  16.0,  79,  15.8,  12.7,  11.4,   0.0,  0.74, 
 02/05/09, 16:00,  15.6,  78,  15.8,  12.9,  11.4,   0.0,  0.64, 
 02/05/09, 17:00,  14.7,  83,  15.8,  13.1,  11.4,   0.0,  0.75, 
 02/05/09, 18:00,  13.3,  89,  15.7,  13.2,  11.4,   0.0,  0.18, 
 02/05/09, 19:00,  12.5,  92,  15.5,  13.3,  11.4,   0.0,  0.00, 
 02/05/09, 20:00,  11.7,  99,  15.2,  13.4,  11.4,   0.0,  0.00, 
 02/05/09, 21:00,  11.5,  99,  14.9,  13.5,  11.4,   0.0,  0.00, 
 02/05/09, 22:00,  11.5,  99,  14.7,  13.5,  11.5,   0.0,  0.00, 
 02/05/09, 23:00,  11.4,  99,  14.5,  13.5,  11.5,   0.0,  0.00, 
 02/05/10, 00:00,  11.0,  99,  14.2,  13.5,  11.4,   0.0,  0.00, 
 02/05/10, 01:00,  10.9,  99,  14.0,  13.5,  11.4,   0.0,  0.00, 
 02/05/10, 02:00,  10.7,  99,  13.8,  13.4,  11.6,   0.0,  0.00, 
 02/05/10, 03:00,  10.8,  99,  13.7,  13.4,  11.5,   0.0,  0.00, 
 02/05/10, 04:00,  10.8,  99,  13.6,  13.3,  11.6,   0.0,  0.00, 
 02/05/10, 05:00,  11.2,  99,  13.5,  13.3,  11.6,   0.0,  0.00, 
 02/05/10, 06:00,  11.2,  99,  13.4,  13.2,  11.6,   0.0,  0.03, 
 02/05/10, 07:00,  12.0,  99,  13.3,  13.2,  11.7,   0.5,  0.20, 
 02/05/10, 08:00,  12.3,  99,  13.3,  13.1,  11.7,   0.0,  0.58, 
 02/05/10, 09:00,  12.7,  99,  13.4,  13.1,  11.7,   0.5,  0.72, 
 02/05/10, 10:00,  12.7,  99,  13.6,  13.0,  11.7,   0.0,  0.66, 
 02/05/10, 11:00,  12.5,  99,  13.8,  13.0,  11.7,   0.0,  0.45, 
 02/05/10, 12:00,  12.4,  99,  13.9,  13.0,  11.7,   0.5,  0.52, 
 02/05/10, 13:00,  12.1,  99,  13.9,  13.0,  11.7,   0.0,  0.43, 
 02/05/10, 14:00,  12.2,  99,  14.0,  13.0,  11.7,   0.0,  0.20, 
 02/05/10, 15:00,  12.1,  99,  14.0,  13.0,  11.7,   0.0,  0.20, 
 02/05/10, 16:00,  11.9,  99,  14.0,  13.1,  11.7,   1.5,  0.20, 
 02/05/10, 17:00,  11.7,  99,  13.9,  13.1,  11.8,   1.0,  0.16, 
 02/05/10, 18:00,  11.4,  99,  13.8,  13.1,  11.8,   1.0,  0.06, 
 02/05/10, 19:00,  11.1,  99,  13.6,  13.1,  11.7,   0.5,  0.00, 
 02/05/10, 20:00,  10.9,  99,  13.6,  13.1,  11.8,   3.0,  0.00, 
 02/05/10, 21:00,  10.9,  99,  13.4,  13.1,  11.8,   4.0,  0.00, 
 02/05/10, 22:00,  10.9,  99,  13.2,  13.1,  11.8,   2.0,  0.00, 
 02/05/10, 23:00,  10.8,  99,  13.1,  13.1,  11.8,   2.0,  0.00, 
 02/05/11, 00:00,  10.7,  99,  13.0,  13.0,  11.8,   4.0,  0.00, 
 02/05/11, 01:00,  10.6,  99,  12.7,  13.0,  11.8,   1.5,  0.00, 
 02/05/11, 02:00,  10.6,  99,  12.6,  12.9,  11.8,   2.0,  0.00, 
 02/05/11, 03:00,  10.6,  99,  12.5,  12.9,  11.8,   1.5,  0.00, 
 02/05/11, 04:00,  10.6,  99,  12.4,  12.7,  11.8,   0.5,  0.00, 
 02/05/11, 05:00,  10.6,  99,  12.4,  12.7,  11.8,   0.5,  0.00, 
 02/05/11, 06:00,  11.0,  99,  12.3,  12.6,  11.9,   0.0,  0.00, 
 02/05/11, 07:00,  12.2,  99,  12.3,  12.6,  11.9,   0.5,  0.28, 
 02/05/11, 08:00,  13.1,  99,  12.4,  12.5,  12.0,   0.0,  0.84, 
 02/05/11, 09:00,  12.8,  99,  12.7,  12.5,  11.9,   0.0,  0.53, 
 02/05/11, 10:00,  13.4,  99,  12.9,  12.5,  11.8,   0.0,  0.73, 
 02/05/11, 11:00,  13.8,  99,  13.2,  12.5,  11.8,   0.0,  1.14, 
 02/05/11, 12:00,  14.1,  97,  13.6,  12.5,  11.9,   0.0,  0.84, 
 02/05/11, 13:00,  14.8,  93,  13.8,  12.5,  11.8,   0.5,  0.97, 
 02/05/11, 14:00,  15.2,  90,  14.1,  12.6,  11.9,   0.0,  0.96, 
 02/05/11, 15:00,  13.3,  99,  14.4,  12.7,  11.8,   0.0,  0.28, 
 02/05/11, 16:00,  12.0,  96,  14.4,  12.9,  11.9,   0.0,  0.35, 
 02/05/11, 17:00,  11.7,  96,  14.3,  12.9,  11.8,   0.0,  0.23, 
 02/05/11, 18:00,  10.3,  97,  14.2,  13.0,  11.9,   0.0,  0.11, 
 02/05/11, 19:00,  10.0,  99,  14.0,  13.0,  11.9,   0.0,  0.00, 
 02/05/11, 20:00,   9.5,  99,  13.7,  13.1,  11.9,   0.0,  0.00, 
 02/05/11, 21:00,   9.0,  99,  13.5,  13.1,  11.8,   0.0,  0.00, 
 02/05/11, 22:00,   9.1,  99,  13.3,  13.1,  11.9,   0.0,  0.00, 
 02/05/11, 23:00,   9.1,  99,  13.1,  13.0,  11.9,   0.0,  0.00, 
 02/05/12, 00:00,   8.5,  99,  12.8,  13.0,  11.8,   0.0,  0.00, 
 02/05/12, 01:00,   7.8,  96,  12.7,  12.9,  11.8,   0.0,  0.00, 
 02/05/12, 02:00,   6.7,  99,  12.4,  12.9,  11.8,   0.0,  0.00, 
 02/05/12, 03:00,   6.2,  99,  12.1,  12.7,  11.9,   0.0,  0.00, 
 02/05/12, 04:00,   6.8,  91,  11.8,  12.6,  11.8,   0.0,  0.00, 
 02/05/12, 05:00,   5.6,  93,  11.5,  12.5,  11.8,   0.0,  0.00, 
 02/05/12, 06:00,   6.0,  99,  11.2,  12.4,  11.8,   0.0,  0.21, 
 02/05/12, 07:00,   6.8,  93,  11.1,  12.3,  11.8,   0.0,  0.69, 
 02/05/12, 08:00,   8.2,  89,  11.1,  12.2,  11.8,   0.0,  1.09, 
 02/05/12, 09:00,   9.3,  94,  11.4,  12.1,  11.8,   0.0,  2.19, 
 02/05/12, 10:00,  11.6,  83,  12.0,  12.0,  11.8,   0.0,  2.64, 
 02/05/12, 11:00,  13.5,  76,  12.8,  12.0,  11.9,   0.0,  2.93, 
 02/05/12, 12:00,  15.6,  71,  13.8,  12.0,  11.9,   0.0,  3.76, 
 02/05/12, 13:00,  16.1,  59,  15.0,  12.1,  11.9,   0.0,  3.60, 
 02/05/12, 14:00,  16.9,  53,  15.3,  12.4,  11.9,   0.0,  3.09, 
 02/05/12, 15:00,  16.4,  49,  15.2,  12.5,  11.9,   0.0,  2.66, 
 02/05/12, 16:00,  15.4,  56,  15.4,  12.8,  11.9,   0.0,  1.97, 
 02/05/12, 17:00,  14.2,  62,  15.6,  12.9,  11.8,   0.0,  1.30, 
 02/05/12, 18:00,  12.3,  70,  15.4,  13.0,  11.8,   0.0,  0.80, 
 02/05/12, 19:00,  10.0,  86,  15.2,  13.2,  11.8,   0.0,  0.13, 
 02/05/12, 20:00,   7.5,  96,  14.7,  13.3,  11.8,   0.0,  0.00, 
 02/05/12, 21:00,   7.6,  91,  14.3,  13.3,  11.8,   0.0,  0.00, 
 02/05/12, 22:00,   9.1,  77,  13.8,  13.3,  11.8,   0.0,  0.00, 
 02/05/12, 23:00,   6.3,  91,  13.4,  13.3,  11.8,   0.0,  0.00, 
 02/05/13, 00:00,   6.0,  85,  12.9,  13.3,  11.8,   0.0,  0.00, 
 02/05/13, 01:00,   7.0,  69,  12.5,  13.2,  11.8,   0.0,  0.00, 
 02/05/13, 02:00,   5.4,  59,  12.2,  13.1,  11.8,   0.0,  0.00, 
 02/05/13, 03:00,   6.1,  43,  11.8,  13.0,  11.8,   0.0,  0.00, 
 02/05/13, 04:00,   9.1,  30,  11.5,  12.9,  11.8,   0.0,  0.00, 
 02/05/13, 05:00,   9.4,  28,  11.2,  12.6,  11.8,   0.0,  0.00, 
 02/05/13, 06:00,  10.6,  24,  10.9,  12.5,  11.8,   0.0,  0.09, 
 02/05/13, 07:00,  12.3,  29,  10.8,  12.4,  11.8,   0.0,  0.98, 
 02/05/13, 08:00,  10.9,  50,  11.0,  12.2,  11.8,   0.0,  1.71, 
 02/05/13, 09:00,  13.2,  44,  11.6,  12.1,  11.8,   0.0,  2.32, 
 02/05/13, 10:00,  15.3,  42,  12.3,  12.0,  11.8,   0.0,  2.94, 
 02/05/13, 11:00,  15.1,  45,  13.2,  12.0,  11.8,   0.0,  2.62, 
 02/05/13, 12:00,  15.4,  43,  14.0,  12.2,  11.9,   0.0,  2.71, 
 02/05/13, 13:00,  16.8,  45,  14.6,  12.3,  11.9,   0.0,  1.58, 
 02/05/13, 14:00,  17.5,  44,  14.8,  12.4,  11.9,   0.0,  2.56, 
 02/05/13, 15:00,  16.4,  53,  15.0,  12.5,  11.9,   0.0,  1.51, 
 02/05/13, 16:00,  14.7,  53,  15.1,  12.7,  11.9,   0.0,  0.68, 
 02/05/13, 17:00,  14.2,  56,  15.0,  12.9,  11.9,   0.0,  0.77, 
 02/05/13, 18:00,  13.6,  58,  14.8,  13.0,  11.9,   0.0,  0.58, 
 02/05/13, 19:00,  12.7,  56,  14.5,  13.1,  11.9,   0.0,  0.07, 
 02/05/13, 20:00,  10.5,  67,  14.3,  13.1,  11.9,   0.0,  0.00, 
 02/05/13, 21:00,   9.2,  72,  13.9,  13.2,  11.9,   0.0,  0.00, 
 02/05/13, 22:00,   8.9,  74,  13.6,  13.2,  11.9,   0.0,  0.00, 
 02/05/13, 23:00,   8.4,  74,  13.2,  13.1,  11.9,   0.0,  0.00, 
 02/05/14, 00:00,   8.7,  73,  12.9,  13.1,  11.9,   0.0,  0.00, 
 02/05/14, 01:00,   8.2,  79,  12.5,  13.0,  11.9,   0.0,  0.00, 
 02/05/14, 02:00,   7.8,  85,  12.2,  13.0,  11.9,   0.0,  0.00, 
 02/05/14, 03:00,   7.4,  91,  12.0,  12.9,  11.8,   0.0,  0.00, 
 02/05/14, 04:00,   7.1,  89,  11.7,  12.7,  11.8,   0.0,  0.00, 
 02/05/14, 05:00,   7.2,  94,  11.5,  12.6,  11.8,   0.0,  0.00, 
 02/05/14, 06:00,   8.5,  88,  11.3,  12.5,  11.8,   0.0,  0.25, 
 02/05/14, 07:00,  12.3,  65,  11.3,  12.4,  11.8,   0.0,  0.95, 
 02/05/14, 08:00,  13.5,  56,  11.5,  12.2,  11.8,   0.0,  1.72, 
 02/05/14, 09:00,  13.8,  58,  12.1,  12.3,  11.9,   0.0,  2.41, 
 02/05/14, 10:00,  15.1,  50,  12.9,  12.1,  11.8,   0.0,  2.75, 
 02/05/14, 11:00,  16.5,  47,  13.6,  12.1,  11.9,   0.0,  3.28, 
 02/05/14, 12:00,  18.3,  45,  14.8,  12.3,  11.9,   0.0,  3.46, 
 02/05/14, 13:00,  18.0,  40,  16.0,  12.5,  11.9,   0.0,  3.75, 
 02/05/14, 14:00,  17.9,  42,  16.2,  12.7,  11.9,   0.0,  2.76, 
 02/05/14, 15:00,  17.8,  45,  16.0,  12.9,  11.9,   0.0,  2.41, 
 02/05/14, 16:00,  16.8,  46,  16.1,  13.1,  11.9,   0.0,  2.06, 
 02/05/14, 17:00,  15.6,  48,  16.3,  13.2,  11.9,   0.0,  1.31, 
 02/05/14, 18:00,  13.9,  52,  16.2,  13.4,  11.9,   0.0,  0.63, 
 02/05/14, 19:00,  11.4,  62,  15.9,  13.5,  11.9,   0.0,  0.10, 
 02/05/14, 20:00,   9.6,  72,  15.3,  13.6,  11.9,   0.0,  0.00, 
 02/05/14, 21:00,   9.4,  65,  14.8,  13.6,  11.8,   0.0,  0.00, 
 02/05/14, 22:00,   8.3,  74,  14.5,  13.7,  11.9,   0.0,  0.00, 
 02/05/14, 23:00,   8.9,  70,  14.1,  13.7,  12.0,   0.0,  0.00, 
 02/05/15, 00:00,   9.3,  68,  13.6,  13.6,  12.0,   0.0,  0.00, 
 02/05/15, 01:00,   9.2,  71,  13.4,  13.6,  12.0,   0.0,  0.00, 
 02/05/15, 02:00,   8.7,  75,  13.1,  13.5,  12.0,   0.0,  0.00, 
 02/05/15, 03:00,   8.6,  76,  12.8,  13.4,  12.0,   0.0,  0.00, 
 02/05/15, 04:00,   8.3,  77,  12.5,  13.3,  12.0,   0.0,  0.00, 
 02/05/15, 05:00,   7.9,  79,  12.3,  13.2,  12.1,   0.0,  0.00, 
 02/05/15, 06:00,   9.2,  77,  12.0,  13.1,  12.1,   0.0,  0.18, 
 02/05/15, 07:00,  13.3,  63,  12.0,  13.0,  12.1,   0.0,  0.84, 
 02/05/15, 08:00,  13.3,  62,  12.1,  12.9,  12.1,   0.0,  1.52, 
 02/05/15, 09:00,  15.2,  62,  12.5,  12.7,  12.1,   0.0,  2.07, 
 02/05/15, 10:00,  15.5,  58,  13.1,  12.6,  12.1,   0.0,  2.50, 
 02/05/15, 11:00,  16.3,  42,  13.7,  12.6,  12.1,   0.0,  2.56, 
 02/05/15, 12:00,  17.3,  49,  14.5,  12.7,  12.1,   0.0,  2.55, 
 02/05/15, 13:00,  19.2,  41,  15.2,  12.9,  12.1,   0.0,  2.66, 
 02/05/15, 14:00,  17.9,  42,  15.6,  13.0,  12.1,   0.0,  1.97, 
 02/05/15, 15:00,  17.2,  44,  15.8,  13.1,  12.1,   0.0,  1.38, 
 02/05/15, 16:00,  15.8,  48,  16.0,  13.3,  12.1,   0.0,  1.07, 
 02/05/15, 17:00,  14.5,  57,  15.9,  13.4,  12.1,   0.0,  0.61, 
 02/05/15, 18:00,  13.2,  60,  15.7,  13.6,  12.1,   0.0,  0.22, 
 02/05/15, 19:00,  11.8,  70,  15.6,  13.7,  12.1,   0.0,  0.01, 
 02/05/15, 20:00,  10.8,  72,  15.2,  13.7,  12.1,   0.0,  0.00, 
 02/05/15, 21:00,  10.8,  72,  14.9,  13.8,  12.1,   0.0,  0.00, 
 02/05/15, 22:00,  10.9,  77,  14.5,  13.8,  12.1,   0.0,  0.00, 
 02/05/15, 23:00,  10.1,  84,  14.3,  13.8,  12.1,   0.0,  0.00, 
 02/05/16, 00:00,   9.8,  91,  14.1,  13.8,  12.1,   0.0,  0.00, 
 02/05/16, 01:00,  10.3,  92,  13.9,  13.7,  12.1,   0.0,  0.00, 